Chino, CA

10:03 PM PST on February 24, 2017 (GMT -0800)
Chino

Weather History for KCNO - November, 2011

Change the Weather History Date:

Saturday, November 19, 2011

  Actual Average Record
Temperature  
Mean Temperature 53 °F -  
Max Temperature 60 °F 69 °F 91 °F (2006)
Min Temperature 46 °F 40 °F 34 °F (2000)
Degree Days  
Heating Degree Days 12    
Growing Degree Days 3 (Base 50)    
Moisture  
Dew Point 46 °F    
Average Humidity 77    
Maximum Humidity 89    
Minimum Humidity 64    
Precipitation  
Precipitation 0.00 in - - ()
Sea Level Pressure  
Sea Level Pressure 29.94 in    
Wind  
Wind Speed 3 mph (WSW)    
Max Wind Speed 13 mph    
Max Gust Speed -    
Visibility 8 miles    
Events      
Averages and records for this station are not official NWS values.
T = Trace of Precipitation, MM = Missing Value Source: NWS Daily Summary

Daily Weather History Graph

Daily Weather History Graph

Search for Another Location

Airport or City:

Trip Planner

Search our weather history database for the weather conditions in past years. The results will help you decide how hot, cold, wet, or windy it might be!

Date:

Astronomy

Nov. 19, 2011 Rise Set
Actual Time 6:26 AM PST 4:44 PM PST
Civil Twilight 5:59 AM PST 5:11 PM PST
Nautical Twilight 5:29 AM PST 5:42 PM PST
Astronomical Twilight 4:59 AM PST 6:11 PM PST
Moon 12:09 AM PST (11/19) 12:50 PM PST (11/19)
Length of Visible Light 11h 11m
Length of Day
10h 18m
Last Quarter, 37% of the Moon is Illuminated
Nov 19
Last Quarter
Nov 24
New
Dec 2
First Quarter
Dec 10
Full
Dec 17
Last Quarter

Hourly Weather History & Observations

Time (PST) Temp. Dew Point Humidity Pressure Visibility Wind Dir Wind Speed Gust Speed Precip Events Conditions
12:53 AM 52.0 °F 48.0 °F 86% 29.92 in 5.0 mi South 3.5 mph - N/A   Overcast
1:53 AM 52.0 °F 46.0 °F 80% 29.91 in 6.0 mi Calm Calm - N/A   Haze
3:53 AM 52.0 °F 46.9 °F 83% 29.90 in 5.0 mi Calm Calm - N/A   Haze
4:53 AM 51.1 °F 46.0 °F 83% 29.91 in 5.0 mi Calm Calm - N/A   Haze
5:53 AM 50.0 °F 46.0 °F 86% 29.92 in 5.0 mi Calm Calm - N/A   Overcast
6:53 AM 50.0 °F 46.9 °F 89% 29.93 in 6.0 mi Calm Calm - N/A   Mostly Cloudy
7:53 AM 54.0 °F 48.0 °F 80% 29.95 in 6.0 mi Calm Calm - N/A   Haze
8:53 AM 55.9 °F 48.0 °F 75% 29.96 in 8.0 mi SE 3.5 mph - N/A   Mostly Cloudy
9:53 AM 59.0 °F 48.0 °F 67% 29.96 in 8.0 mi Calm Calm - N/A   Mostly Cloudy
10:53 AM 59.0 °F 46.9 °F 64% 29.95 in 10.0 mi Calm Calm - N/A   Mostly Cloudy
11:53 AM 59.0 °F 46.9 °F 64% 29.94 in 10.0 mi Calm Calm - N/A   Mostly Cloudy
1:53 PM 60.1 °F 48.0 °F 64% 29.91 in 10.0 mi SW 12.7 mph - N/A   Mostly Cloudy
2:53 PM 59.0 °F 48.0 °F 67% 29.91 in 10.0 mi WSW 8.1 mph - N/A   Mostly Cloudy
3:53 PM 57.9 °F 46.0 °F 65% 29.91 in 10.0 mi WSW 10.4 mph - N/A   Mostly Cloudy
5:53 PM 53.1 °F 45.0 °F 74% 29.94 in 10.0 mi WSW 6.9 mph - N/A   Mostly Cloudy
6:53 PM 52.0 °F 45.0 °F 77% 29.95 in 10.0 mi WNW 5.8 mph - N/A   Mostly Cloudy
7:53 PM 52.0 °F 45.0 °F 77% 29.96 in 10.0 mi WNW 8.1 mph - N/A   Mostly Cloudy
8:53 PM 53.1 °F 45.0 °F 74% 29.98 in 10.0 mi WSW 4.6 mph - N/A   Overcast
9:53 PM 51.1 °F 45.0 °F 80% 29.98 in 10.0 mi SSW 3.5 mph - N/A   Overcast
10:53 PM 46.9 °F 43.0 °F 86% 29.99 in 10.0 mi Calm Calm - N/A   Mostly Cloudy
11:53 PM 48.0 °F 44.1 °F 86% 29.98 in 9.0 mi Calm Calm - N/A   Partly Cloudy